Погода в Прайя-ду-Форте

Бразилия     12°31′39″S   38°18′19″W
темп.,
°C
ветер,
м/с
пор.,
м/с
влажн.,
%
обл.,
%
осадки,
мм/ч
давл.,
гПа
погр.,
м
27 января, ср
ср2700:00+22в149786 0.6 1013146
03:00+22вюв149693 2.8 1012141
06:00+22в1494100 1.7 1013149
09:00+27вюв2575100 2.1 1014852
12:00+28вюв466858 1.2 1014878
15:00+29вюв455978 1.5 10111268
18:00+25вюв2679100 0.0 1012497
21:00+22вюв1293100 0.0 101345
28 января, чт
чт2800:00+22в119799 0.1 101324
03:00+21ююв019889 1.0 101235
06:00+22св1295100 2.6 101278
09:00+26вюв258099 4.7 1014749
12:00+25вюв258498 2.6 1013463
15:00+29вюв355899 3.4 10111280
18:00+24вюв2682100 0.0 1011278
21:00+22вюв129773 0.0 101324
29 января, пт
пт2900:00+22св119766 0.1 101324
03:00+21всв119778 0.1 101223
06:00+22юв0195100 0.0 101323
09:00+29юв2362100 0.2 10151116
12:00+29в3464100 1.1 10141110
15:00+30вюв4552100 1.3 10111331
18:00+25в2780100 0.0 1012606
21:00+22в1494100 0.0 1013169
30 января, сб
сб3000:00+22вюв1294100 0.0 101338
03:00+22вюв1196100 0.1 101224
06:00+22ююз0193100 0.0 101425
09:00+27вюв2372100 0.4 1015850
12:00+31вюв3451100 0.3 10141413
15:00+29вюв4559100 0.4 10121235
18:00+25вюв2679100 0.0 1013520
21:00+23в2794100 0.2 1014275
31 января, вс
вс3100:00+22всв1296100 0.0 101331
03:00+22в119888 0.9 101223
06:00+22ю019676 0.1 101424
09:00+27в237279 1.3 1015839
12:00+31вюв335160 0.6 10131403
15:00+30вюв455479 0.7 10111332
18:00+25вюв267631 0.0 1012469
21:00+22вюв129116 0.0 101352